Location: ?????
(33.6267°N, 35.4675°E)
Time: 11:36:25
(UTC+00:00)

Cosmos 1500 Rocket - Pass Details

Date: 12 November 2019
Orbit: 602 x 632 km, 82.5° (Epoch: 09 December)

Event Time Altitude Azimuth Distance (km) Brightness Sun altitude
Rises 15:17:44 0° 354° (N) 2,891 6.9 -8.8°
Reaches altitude 10° 15:19:59 10° 355° (N) 1,977 6.1 -9.2°
Maximum altitude 15:24:21 85° 81° (E) 617 3.5 -10.1°
Drops below altitude 10° 15:28:40 10° 173° (S) 1,947 6.2 -11.0°
Sets 15:30:52 0° 174° (S) 2,843 7.1 -11.4°
